#timestamp,LO_Frequency,Hit,StdDev 
1666476015.3,286046997.3,N
1666476035.1,286046998.0,N
1666476055.9,286046997.4,N
1666476075.7,286046995.2,N
1666476095.6,286046995.7,N
1666476115.4,286046993.3,Y
1666476135.2,286046996.1,P
1666476155.1,286046994.3,P
1666476156.0,286046994.3,P
1666476175.8,286046992.0,Y
1666476195.7,286046997.8,P
1666476215.5,286046996.4,P
1666476235.3,286046996.0,P
1666476255.2,286046996.8,Y
1666476275.0,286046999.9,P
1666476275.9,286046999.9,N
1666476295.8,286047001.7,N
1666476315.6,286047002.7,N
1666476335.4,286046998.4,N
1666476355.3,286047000.8,N
1666476375.1,286046999.2,N
1666476395.8,286046999.3,N
1666476415.7,286047000.0,N
1666476435.5,286046999.8,N
1666476455.4,286046998.6,N
1666476475.2,286047000.0,N
1666476495.0,286047000.1,N
1666476495.9,286047000.1,N
1666476515.8,286047002.1,N
1666476535.6,286047002.5,N
1666476555.7,286046999.8,N
1666476575.5,286047002.7,N
1666476595.3,286046999.4,N
1666476615.2,286046998.6,N
1666476635.0,286047000.8,N
1666476635.9,286047000.8,N
1666476655.8,286047002.4,N
1666476675.6,286047000.1,N
1666476695.4,286047000.9,N
1666476715.3,286047001.2,N
1666476735.1,286047000.6,N
1666476755.9,286047001.2,N
1666476775.7,286047000.5,N
1666476795.5,286047000.0,N
1666476815.4,286046998.2,N
1666476835.2,286047000.8,N
1666476855.0,286046998.1,N
1666476855.9,286046998.1,N
1666476875.8,286046998.1,N
1666476895.6,286047002.4,N
1666476915.5,286047004.2,Y
1666476935.3,286047001.8,P
1666476955.1,286047004.0,P
1666476975.9,286047003.5,N
1666476995.7,286047001.4,N
1666477015.5,286047001.6,N
1666477035.4,286047000.0,N
1666477055.2,286047000.4,N
1666477075.1,286046998.6,N
1666477076.0,286046998.6,N
1666477095.8,286046996.8,N
1666477115.6,286046999.0,N
1666477135.5,286047002.8,N
1666477155.3,286047000.1,N
1666477175.1,286047002.8,N
1666477195.9,286046999.8,N
1666477215.7,286047000.1,N
1666477235.6,286047001.7,N
1666477255.4,286047001.7,N
1666477275.2,286047003.7,N
1666477295.1,286047004.2,N
1666477296.0,286047004.2,N
1666477315.8,286047003.2,N
1666477335.6,286047003.7,N
1666477355.5,286047001.4,N
1666477375.3,286047003.5,N
1666477395.2,286047004.3,N
1666477415.9,286047003.5,N
1666477435.7,286047005.8,N
1666477455.6,286047007.1,Y
1666477475.4,286047003.7,P
1666477495.3,286047002.3,N
1666477515.1,286046999.9,N
1666477516.0,286046999.9,N
1666477535.8,286046999.9,N
1666477555.7,286046999.8,N
1666477575.5,286047001.6,N
1666477595.3,286047001.5,N
1666477615.2,286047001.9,N
1666477635.0,286047001.4,N
1666477635.9,286047001.4,N
1666477655.8,286047003.5,Y
1666477675.6,286047004.3,P
1666477695.4,286047001.3,N
1666477715.3,286047003.3,N
1666477735.1,286047002.7,N
1666477755.8,286047001.8,N
1666477775.7,286047002.0,N
1666477795.5,286047000.1,N
1666477815.4,286047001.9,N
1666477835.2,286047000.0,N
1666477855.0,286046999.9,N
1666477855.9,286046999.9,N
1666477875.8,286047002.3,N
1666477895.6,286047001.8,N
1666477915.4,286047003.2,N
1666477935.3,286047004.2,Y
1666477955.1,286047001.9,P
1666477975.9,286047002.6,P
1666477995.7,286047002.8,P
1666478015.5,286047002.3,Y
1666478035.4,286046998.3,P
1666478055.2,286047000.8,N
1666478075.1,286047001.2,N
1666478076.0,286047001.2,N
1666478095.8,286046998.3,N
1666478115.6,286046999.5,N
1666478135.5,286046997.4,N
1666478155.3,286046996.7,N
1666478175.2,286046998.4,N
1666478195.9,286046997.2,N
1666478215.7,286046997.8,N
1666478235.6,286046996.6,N
1666478255.4,286046999.4,N
1666478275.2,286046997.4,N
1666478295.1,286046997.7,N
1666478296.0,286046997.7,N
1666478315.8,286046998.4,N
1666478335.7,286046997.9,N
1666478355.5,286046995.8,N
1666478375.3,286046997.8,N
1666478395.2,286046998.8,N
1666478415.0,286046999.5,N
1666478415.9,286046999.5,N
1666478435.8,286046997.9,N
1666478455.6,286046997.6,N
1666478475.4,286046997.5,N
1666478495.3,286046997.7,N
1666478515.1,286046996.3,N
1666478535.9,286046995.0,Y
1666478555.7,286046999.3,P
1666478575.5,286046998.3,P
1666478595.4,286047000.6,N
1666478615.2,286047000.7,N
1666478635.0,286047001.0,N
1666478635.9,286047001.0,N
1666478655.8,286046999.3,N
1666478675.6,286047000.8,N
1666478695.5,286047001.1,N
1666478715.3,286046998.8,N
1666478735.1,286047000.7,N
1666478755.9,286046998.2,N
1666478775.7,286046998.1,N
1666478795.6,286046996.9,N
1666478815.4,286046996.1,N
1666478835.2,286046997.3,N
1666478855.1,286046998.4,N
1666478856.0,286046998.4,N
1666478875.8,286047000.0,N
1666478895.6,286046999.9,N
1666478915.5,286046998.6,N
1666478935.3,286047000.7,N
1666478955.2,286046998.4,N
1666478975.9,286046999.3,N
1666478995.7,286046999.1,N
1666479015.6,286046998.5,N
1666479035.4,286047001.1,N
1666479055.2,286046998.8,N
1666479075.1,286046998.2,N
1666479076.0,286046998.2,N
1666479095.8,286046996.5,N
1666479115.7,286046999.3,N
1666479135.5,286047000.6,N
1666479155.3,286046998.5,N
1666479175.2,286046998.6,N
1666479195.0,286046997.4,N
1666479195.9,286046997.4,N
1666479215.8,286046997.3,N
1666479235.6,286047000.5,N
1666479255.4,286047001.0,N
1666479275.3,286046999.0,N
1666479295.1,286046999.5,N
1666479315.8,286046997.4,N
1666479335.7,286046997.7,N
1666479355.5,286046995.5,Y
1666479375.4,286046996.1,P
1666479395.2,286046997.7,N
1666479415.0,286046996.9,N
1666479415.9,286046996.9,Y
1666479435.8,286047000.3,P
1666479455.6,286047001.6,N
1666479475.5,286047002.3,N
1666479495.3,286047002.2,N
1666479515.1,286047001.5,N
1666479535.9,286047001.9,N
1666479555.7,286047001.7,N
1666479575.6,286047004.8,Y
1666479595.4,286047005.7,P
